Location: Rosthern
(52.6623°N, 106.3318°W)
Time: 07:03:37
(UTC-06:00)

ARIANE 6 FM1 Upper Stage - Visible Passes

Search period start: 13 December 2025 00:00
Search period end: 23 December 2025 00:00
Orbit: 522 x 611 km, 62.0° (Epoch: 12 December)

Date Brightness Start Highest point End Pass type
(mag) Time Alt. Az. Time Alt. Az. Time Alt. Az.
13 Dec 6.0 06:59:36 10° SE 07:01:12 12° ESE 07:02:48 10° E visible
14 Dec 5.7 06:58:47 10° SSE 07:01:26 17° ESE 07:04:02 10° E visible
15 Dec 5.1 06:58:27 10° S 07:01:40 23° ESE 07:04:50 10° ENE visible
16 Dec 4.4 06:58:21 10° S 07:01:56 31° SE 07:05:29 10° ENE visible
17 Dec 3.7 06:58:24 10° SSW 07:02:13 43° SE 07:06:01 10° ENE visible
18 Dec 5.8 05:24:00 10° ESE 05:24:17 10° ESE 05:24:34 10° ESE visible
18 Dec 3.0 06:58:52 12° SSW 07:02:32 60° SE 07:06:28 10° NE visible
19 Dec 5.4 05:24:27 14° ESE 05:24:27 14° ESE 05:26:38 10° E visible
19 Dec 2.5 07:00:33 24° SW 07:02:53 81° SE 07:06:52 10° NE visible
20 Dec 5.3 05:25:45 18° E 05:25:45 18° E 05:27:33 10° ENE visible
20 Dec 2.4 07:01:49 38° WSW 07:03:15 77° NW 07:07:13 10° NE visible
21 Dec 5.2 05:26:46 18° E 05:26:46 18° E 05:28:12 10° ENE visible
21 Dec 2.5 07:02:49 47° W 07:03:37 59° NW 07:07:34 10° NE visible
22 Dec 5.3 05:27:36 17° ENE 05:27:36 17° ENE 05:28:44 10° ENE visible
22 Dec 2.8 07:03:38 44° NW 07:04:02 46° NNW 07:07:52 10° NE visible
